Sacramento, CA

9:49 PM PST on February 11, 2016 (GMT -0800)
Sacramento Executive

Weather History for KSAC - June, 2013

Change the Weather History Date:

Tuesday, June 25, 2013

  Actual Average Record
Temperature  
Mean Temperature 70 °F -  
Max Temperature 78 °F 89 °F 106 °F (1995)
Min Temperature 62 °F 57 °F 48 °F (1950)
Degree Days  
Heating Degree Days 0    
Cooling Degree Days 5    
Growing Degree Days 20 (Base 50)    
Moisture  
Dew Point 61 °F    
Average Humidity 76    
Maximum Humidity 93    
Minimum Humidity 58    
Precipitation  
Precipitation 0.11 in 0.00 in 0.11 in (2013)
Month to date precipitation 0.22 0.20  
Year to date precipitation 3.91 11.89  
Since 1 July precipitation 15.20  
Sea Level Pressure  
Sea Level Pressure 29.94 in    
Wind  
Wind Speed 4 mph (SSW)    
Max Wind Speed 15 mph    
Max Gust Speed 21 mph    
Visibility 8 miles    
Events Rain    
T = Trace of Precipitation, MM = Missing Value Source: NWS Daily Summary

Daily Weather History Graph

Daily Weather History Graph

Search for Another Location

Airport or City:

Trip Planner

Search our weather history database for the weather conditions in past years. The results will help you decide how hot, cold, wet, or windy it might be!

Date:

Astronomy

Jun. 25, 2013 Rise Set
Actual Time 5:43 AM PDT 8:34 PM PDT
Civil Twilight 5:11 AM PDT 9:05 PM PDT
Nautical Twilight 4:31 AM PDT 9:45 PM PDT
Astronomical Twilight 3:45 AM PDT 10:31 PM PDT
Moon 10:25 PM PDT (6/25) 8:27 AM PDT (6/25)
Length of Visible Light 15h 54m
Length of Day
14h 50m
Waning Gibbous, 92% of the Moon is Illuminated
Jun 25
Waning Gibbous
Jun 29
Last Quarter
Jul 8
New
Jul 15
First Quarter
Jul 22
Full

Hourly Weather History & Observations

Time (PDT) Temp. Dew Point Humidity Pressure Visibility Wind Dir Wind Speed Gust Speed Precip Events Conditions
12:00 AM 62.6 °F 59.0 °F 88% 29.92 in 10.0 mi Calm Calm - N/A   Overcast
12:20 AM 62.6 °F 59.0 °F 88% 29.90 in 10.0 mi South 3.5 mph - N/A   Overcast
12:53 AM 62.1 °F 57.9 °F 86% 29.90 in 10.0 mi East 3.5 mph - N/A   Mostly Cloudy
1:32 AM 62.6 °F 59.0 °F 88% 29.91 in 10.0 mi Calm Calm - N/A   Overcast
1:53 AM 62.1 °F 59.0 °F 90% 29.91 in 10.0 mi Calm Calm - N/A   Overcast
2:53 AM 63.0 °F 59.0 °F 87% 29.90 in 10.0 mi Calm Calm - 0.00 in   Overcast
3:53 AM 63.0 °F 59.0 °F 87% 29.89 in 10.0 mi Calm Calm - 0.00 in   Overcast
4:53 AM 62.1 °F 59.0 °F 90% 29.89 in 5.0 mi Calm Calm - 0.00 in Rain Light Rain
5:15 AM 62.6 °F 60.8 °F 94% 29.89 in 2.5 mi Calm Calm - 0.01 in Rain Light Rain
5:43 AM 62.6 °F 60.8 °F 94% 29.90 in 1.8 mi Calm Calm - 0.04 in Rain Rain
5:53 AM 63.0 °F 60.1 °F 90% 29.91 in 2.0 mi Calm Calm - 0.06 in Rain Light Rain
6:06 AM 62.6 °F 60.8 °F 94% 29.90 in 3.0 mi SE 4.6 mph - 0.00 in   Overcast
6:13 AM 62.6 °F 60.8 °F 94% 29.90 in 3.0 mi SE 4.6 mph - 0.00 in   Overcast
6:53 AM 64.0 °F 61.0 °F 90% 29.91 in 5.0 mi ESE 3.5 mph - 0.00 in   Overcast
7:53 AM 64.9 °F 61.0 °F 87% 29.92 in 10.0 mi SSE 5.8 mph - N/A   Overcast
8:10 AM 64.4 °F 60.8 °F 88% 29.92 in 10.0 mi SE 4.6 mph - N/A   Overcast
8:45 AM 64.4 °F 62.6 °F 94% 29.93 in 1.8 mi SSE 5.8 mph - 0.01 in Rain Heavy Rain
8:53 AM 66.0 °F 62.1 °F 87% 29.93 in 1.8 mi SSE 5.8 mph - 0.04 in Rain Light Rain
8:57 AM 66.2 °F 62.6 °F 88% 29.93 in 3.0 mi SSE 5.8 mph - 0.00 in Rain Light Rain
9:53 AM 68.0 °F 62.1 °F 81% 29.94 in 10.0 mi SSE 5.8 mph - 0.01 in   Overcast
10:53 AM 70.0 °F 61.0 °F 73% 29.95 in 10.0 mi SSE 10.4 mph 16.1 mph N/A   Overcast
11:53 AM 69.1 °F 62.1 °F 78% 29.96 in 5.0 mi SSE 4.6 mph - 0.00 in Rain Light Rain
12:53 PM 70.0 °F 62.1 °F 76% 29.98 in 10.0 mi South 3.5 mph - 0.00 in   Overcast
1:37 PM 69.8 °F 64.4 °F 83% 29.98 in 9.0 mi West 6.9 mph - 0.00 in   Overcast
1:42 PM 69.8 °F 64.4 °F 83% 29.98 in 10.0 mi West 9.2 mph - 0.00 in   Overcast
1:53 PM 70.0 °F 64.9 °F 84% 29.99 in 10.0 mi WSW 6.9 mph - 0.00 in   Overcast
2:03 PM 69.8 °F 64.4 °F 83% 29.98 in 10.0 mi WSW 4.6 mph - N/A   Overcast
2:53 PM 73.0 °F 63.0 °F 71% 29.98 in 10.0 mi SSW 8.1 mph - N/A   Overcast
3:53 PM 75.0 °F 63.0 °F 66% 29.96 in 10.0 mi SW 9.2 mph - N/A   Scattered Clouds
4:51 PM 77.0 °F 62.6 °F 61% 29.96 in 10.0 mi SW 9.2 mph - N/A   Mostly Cloudy
4:53 PM 78.1 °F 63.0 °F 60% 29.96 in 10.0 mi WSW 11.5 mph - N/A   Mostly Cloudy
5:20 PM 75.2 °F 62.6 °F 65% 29.95 in 10.0 mi WSW 9.2 mph - N/A   Scattered Clouds
5:53 PM 75.9 °F 62.1 °F 62% 29.94 in 10.0 mi West 16.1 mph 21.9 mph N/A   Clear
6:53 PM 73.9 °F 62.1 °F 66% 29.95 in 10.0 mi WSW 8.1 mph 16.1 mph N/A   Partly Cloudy
7:53 PM 71.1 °F 61.0 °F 70% 29.95 in 10.0 mi SSW 5.8 mph - N/A   Clear
8:53 PM 69.1 °F 61.0 °F 75% 29.94 in 10.0 mi SW 9.2 mph - N/A   Clear
9:53 PM 68.0 °F 60.1 °F 76% 29.96 in 10.0 mi SSW 5.8 mph - N/A   Clear
10:53 PM 66.0 °F 60.1 °F 81% 29.96 in 10.0 mi SW 8.1 mph - N/A   Clear
11:53 PM 64.0 °F 60.1 °F 87% 29.97 in 10.0 mi SSW 5.8 mph - N/A   Clear